Theta_e
327 326 326 326 326 326 326 326 326 326 326 326 326 326 326 326 326 326 326 326 326 327 327 327 326 326 325 323 323 323 323 324 324 324 325 325 325 325 325 325 325 325
327 327 326 326 326 327 326 326 326 326 326 327 327 326 326 326 326 326 327 327 327 327 327 327 327 326 325 324 324 324 324 324 324 325 325 325 325 325 325 325 325 325
327 327 327 327 327 327 326 326 326 326 327 327 327 327 326 326 326 326 327 327 327 327 327 327 327 327 326 326 325 325 325 324 325 325 325 325 325 326 326 326 326 325
327 327 327 327 327 327 327 326 326 327 327 327 327 327 326 326 326 327 327 327 327 327 327 327 327 327 327 326 326 326 325 325 325 325 325 325 325 325 326 326 326 326
327 327 327 327 327 327 326 326 327 327 327 327 327 327 327 327 327 327 327 327 327 327 327 327 327 327 326 326 326 326 325 324 324 324 324 325 325 325 325 326 326 326
327 327 327 327 327 327 326 327 327 328 327 328 327 327 327 327 327 327 327 327 327 327 327 327 326 327 326 326 326 325 324 324 323 323 324 324 324 324 325 325 325 325
326 326 327 327 326 327 327 327 328 328 328 328 327 327 327 327 327 327 327 327 327 326 327 326 326 327 326 326 326 325 325 325 324 324 324 324 323 323 324 324 324 325
325 325 325 326 326 326 326 327 327 328 328 327 327 327 327 327 327 327 326 326 326 326 326 327 326 326 326 325 325 324 324 324 323 323 324 324 324 324 323 323 323 324
324 324 325 325 325 326 326 327 327 327 327 327 326 326 326 327 326 326 326 326 326 326 326 326 326 325 324 323 323 324 323 322 321 322 323 322 322 322 321 322 322 323
322 323 324 324 325 325 325 326 326 326 326 326 326 326 326 326 326 325 326 325 326 326 326 326 326 324 322 322 324 324 321 321 320 320 320 320 320 320 320 322 322 322
322 322 323 323 324 324 324 325 325 325 325 325 325 325 325 325 324 324 325 325 325 326 326 325 324 322 322 323 324 322 319 319 319 319 320 320 320 320 321 322 321 320
320 320 322 322 323 323 323 324 324 323 324 324 324 324 323 323 323 323 324 324 324 325 324 323 322 322 323 322 321 320 320 319 318 319 320 320 320 320 320 320 319 319
317 318 320 321 321 322 323 322 323 323 323 324 324 323 322 321 321 322 322 322 322 323 323 322 322 322 322 321 320 319 319 318 318 319 320 319 319 318 318 317 317 316
314 316 318 319 320 321 322 322 322 323 323 324 323 321 320 319 319 319 319 320 321 321 321 320 321 321 320 319 318 317 316 317 318 318 318 318 317 316 315 315 314 314
311 312 314 317 319 320 321 321 322 322 322 321 319 318 317 316 317 317 318 319 320 319 319 319 320 320 318 317 318 317 316 317 317 316 316 316 315 314 313 313 312 313
309 310 310 312 315 317 318 319 319 318 317 315 314 314 315 315 316 317 317 317 318 318 318 318 318 318 317 317 317 317 316 315 315 314 314 313 312 312 312 312 312 312
309 309 309 309 310 312 313 313 313 312 311 311 312 314 315 316 316 316 316 316 316 316 316 316 315 315 315 315 314 314 313 313 312 312 312 311 311 311 311 310 310 311
309 309 309 309 309 309 309 310 310 310 310 311 313 314 314 315 315 315 315 314 314 313 313 312 312 312 311 311 310 310 310 310 309 310 311 311 311 310 310 310 309 309
308 308 309 309 309 309 309 309 309 310 311 311 312 313 313 313 313 312 312 311 311 310 310 309 309 309 309 308 308 308 308 308 308 309 310 310 309 309 309 309 309 309
307 308 309 309 310 310 309 309 309 310 310 310 311 311 310 310 310 310 310 309 309 308 307 307 306 306 305 305 306 306 306 306 307 308 308 308 308 308 307 308 308 308
307 308 309 309 310 309 308 308 309 309 309 309 308 308 308 308 308 308 308 307 307 306 305 305 305 305 304 304 304 305 305 305 305 305 306 306 306 307 307 307 307 307
307 308 308 309 309 308 307 307 307 308 307 307 306 305 305 305 305 305 305 304 304 304 304 304 305 305 305 305 305 305 306 306 306 306 306 306 306 307 306 306 306 306
307 307 307 307 306 306 306 306 306 306 305 305 304 303 303 303 303 303 302 302 303 303 304 304 305 305 306 306 306 306 306 306 307 306 306 306 306 306 305 305 304 304
306 306 306 306 305 305 306 305 304 304 304 303 303 302 302 302 301 301 302 302 302 303 303 304 305 306 306 306 306 306 306 307 307 306 306 305 305 304 304 303 303 303
305 305 305 305 304 304 304 302 302 302 301 301 300 300 301 301 301 301 301 302 303 303 304 304 305 306 306 306 307 307 307 307 306 306 305 304 304 303 302 301 301 302
304 304 304 304 304 304 302 301 300 300 299 299 299 299 299 299 300 301 301 302 303 304 304 305 305 305 306 306 307 307 307 306 306 305 305 304 303 303 302 300 300 300
Wind_Speed
41 40 39 39 39 39 38 36 35 34 33 34 34 34 34 32 30 28 26 26 25 25 25 25 25 24 24 24 23 23 24 25 26 26 27 28 29 29 30 31 30 30
41 40 39 39 39 39 38 36 35 35 34 35 35 34 33 32 30 28 27 26 25 25 25 24 24 24 24 23 22 23 25 26 27 27 27 30 30 30 30 30 30 32
39 39 39 40 40 40 38 36 35 35 35 35 35 34 33 31 29 28 27 26 25 25 24 24 24 24 24 23 23 24 24 25 27 26 27 29 29 28 30 30 31 31
39 39 40 40 40 39 37 35 35 35 35 35 35 34 32 30 29 27 27 26 26 26 25 24 23 23 23 23 23 24 24 25 26 24 25 27 25 27 28 28 29 29
38 38 38 39 38 37 35 34 35 35 35 35 35 33 31 30 28 28 27 27 26 26 25 24 24 23 23 23 23 24 24 24 24 22 24 26 26 26 26 26 27 28
36 37 37 37 36 34 34 35 35 35 35 35 34 32 31 29 28 28 27 27 26 25 25 25 25 24 24 24 24 25 24 25 25 24 24 25 24 24 24 25 26 27
35 35 34 34 33 33 34 35 35 35 35 34 33 32 31 29 28 27 27 26 25 25 25 24 24 24 24 24 24 24 25 26 25 24 23 24 23 23 23 24 25 26
33 33 32 31 32 32 34 35 35 35 35 34 33 32 30 28 28 27 26 25 25 25 24 23 23 23 23 22 23 24 24 24 23 22 23 24 24 23 23 22 23 23
31 30 30 31 32 33 34 35 36 36 35 34 33 31 29 28 27 26 25 24 24 24 24 23 23 22 21 22 23 24 24 23 23 23 23 23 23 23 22 21 22 22
29 30 30 32 33 34 35 36 36 35 34 33 31 29 28 28 27 26 25 24 24 24 23 23 22 21 22 24 24 23 23 22 22 23 24 24 23 23 23 22 21 20
29 30 31 33 34 35 35 35 34 34 33 31 30 29 29 28 26 25 24 24 24 24 23 23 22 22 23 23 22 22 23 23 22 23 23 23 23 23 22 20 18 16
29 30 32 33 34 34 34 34 33 32 31 30 29 29 28 27 26 25 24 24 24 23 23 23 23 22 23 22 22 23 23 21 22 22 20 20 20 19 17 16 16 15
29 30 31 32 32 32 32 32 31 30 29 29 28 28 27 26 25 24 23 23 23 23 23 22 22 22 21 21 22 21 20 20 22 22 19 17 16 15 15 15 15 15
29 29 29 29 30 30 30 29 29 28 28 27 27 26 26 25 24 23 22 22 22 23 22 21 22 22 21 21 22 22 21 21 20 19 18 16 16 15 15 16 17 17
27 27 27 28 28 29 29 28 27 27 27 26 25 25 24 22 21 21 21 21 22 22 21 21 22 22 21 20 22 22 21 19 18 17 16 16 16 17 18 19 19 18
26 26 26 27 28 28 28 27 27 27 26 25 24 23 22 21 21 21 22 22 23 22 22 22 23 22 21 20 21 21 21 21 21 20 20 19 20 20 20 18 15 13
27 27 26 27 27 27 27 27 26 26 24 23 23 23 23 23 23 23 24 24 24 24 24 24 24 24 23 23 22 22 22 22 21 20 20 21 20 18 16 14 13 13
28 27 26 26 26 27 27 26 25 24 24 24 25 25 25 25 26 26 26 26 26 26 26 25 25 24 24 24 24 23 22 21 20 19 19 18 17 15 15 16 16 16
28 27 26 27 27 26 26 26 25 26 27 28 28 27 27 28 28 28 28 28 27 27 27 26 26 25 24 23 22 22 21 20 19 20 18 17 16 16 16 16 15 16
28 28 28 28 27 27 27 27 28 29 29 29 29 29 29 30 30 30 30 29 29 29 28 28 27 26 25 24 23 22 21 20 20 19 18 17 18 17 16 15 15 15
29 29 29 29 28 28 28 29 30 31 31 30 30 30 31 30 30 29 28 27 27 26 25 24 22 20 21 22 21 20 19 19 20 20 19 19 19 18 17 17 17 16
31 31 31 31 30 29 30 32 32 33 32 31 31 30 30 29 28 27 25 24 22 21 21 21 19 18 18 18 19 18 18 18 18 19 20 20 19 18 18 18 18 17
32 32 32 32 31 31 33 34 34 34 34 33 32 31 31 30 28 27 25 23 23 23 23 23 21 21 20 19 19 19 19 20 20 20 21 21 20 19 18 18 18 17
33 33 33 32 32 34 36 35 34 34 34 33 33 32 32 30 29 27 26 25 25 25 25 24 23 22 21 21 21 21 20 21 21 21 21 20 19 19 18 19 18 17
32 32 33 33 33 35 35 33 32 32 31 31 31 30 29 28 27 27 27 27 27 25 24 24 24 23 23 23 23 22 22 22 23 22 21 21 21 21 20 19 18 17
30 31 32 33 34 34 32 30 30 29 28 28 28 28 27 27 27 27 28 28 27 26 25 25 25 25 25 25 25 25 25 24 24 23 23 24 24 23 22 20 18 16
Wind_Direction
229 229 231 232 234 237 237 236 237 238 240 242 243 246 248 250 250 249 250 252 252 254 256 257 257 256 256 254 253 253 252 252 253 253 254 252 250 250 250 250 250 250
229 230 231 232 235 237 238 237 238 240 242 244 246 248 249 249 249 249 250 250 250 252 254 255 256 256 256 255 254 253 251 252 251 252 254 252 249 249 250 251 253 252
229 230 231 233 236 237 238 238 239 241 244 246 247 248 248 248 248 248 249 249 250 251 251 252 254 255 255 254 254 253 251 251 251 252 254 251 248 250 251 252 253 252
229 231 232 235 237 237 237 237 239 242 243 245 247 247 247 247 247 247 247 248 248 249 250 250 251 252 253 254 254 253 253 251 250 251 253 252 252 253 252 253 254 254
231 232 233 235 236 236 236 237 240 242 243 245 247 247 246 246 245 246 246 246 247 248 249 248 248 248 249 251 252 251 253 254 253 253 253 253 254 254 254 255 254 253
234 234 234 235 236 235 235 238 242 243 245 247 247 246 246 245 245 246 246 246 246 246 247 247 247 248 247 248 248 248 249 253 253 252 253 253 254 255 256 255 254 256
235 236 235 235 235 236 238 241 244 245 247 248 247 247 246 245 245 247 247 247 246 246 246 245 246 248 248 248 248 249 250 252 252 252 254 253 253 255 256 256 257 259
236 236 236 237 237 238 239 242 244 246 247 246 245 246 246 245 247 248 247 246 246 245 245 244 245 246 247 246 246 249 251 254 254 254 256 254 252 254 258 262 263 262
238 238 239 239 239 239 240 242 244 245 244 243 243 245 245 246 247 246 245 245 244 245 244 243 243 242 242 244 244 244 247 251 251 251 257 258 254 254 259 266 266 262
239 239 238 238 238 239 240 241 242 242 241 241 242 244 245 245 245 243 243 241 241 242 241 239 239 238 240 243 241 240 245 249 248 248 253 256 255 256 261 265 263 258
238 237 237 237 238 239 240 240 240 240 240 241 242 243 243 243 242 240 239 238 238 239 238 238 239 239 240 239 237 240 243 245 247 249 250 251 253 255 256 255 251 250
237 237 236 237 238 239 240 240 240 240 241 241 241 240 240 240 239 237 235 235 236 237 237 237 238 238 238 237 237 242 241 239 246 252 253 251 249 248 246 243 243 248
238 237 237 238 239 240 240 240 240 241 241 240 239 238 237 236 234 233 232 233 234 234 234 235 235 234 234 234 237 242 244 243 245 246 244 243 241 241 243 246 253 257
239 239 239 240 240 240 240 240 239 239 239 238 236 234 233 232 230 229 229 228 229 231 232 232 231 230 233 236 238 239 241 242 239 235 236 239 242 246 250 255 263 264
240 240 239 239 238 238 237 237 237 236 235 234 232 230 230 229 227 226 224 223 224 226 227 227 227 229 232 234 233 231 232 236 239 241 244 247 250 257 260 260 261 259
241 239 237 236 235 234 234 234 234 233 232 230 227 224 223 221 220 220 219 220 221 222 223 224 226 229 230 230 231 234 238 242 246 250 253 255 257 255 251 247 245 247
239 237 235 235 234 233 233 232 231 229 226 223 219 217 215 214 215 217 218 220 222 224 226 228 229 231 232 234 236 238 239 240 242 247 247 245 242 238 236 237 242 248
237 236 234 234 233 233 232 230 227 223 219 216 214 212 212 213 216 218 220 222 224 227 229 230 231 232 232 234 236 235 236 237 237 238 234 228 228 235 241 244 245 243
234 234 233 233 232 231 229 225 221 219 216 215 214 213 215 217 219 221 222 224 225 226 228 229 229 229 229 230 230 229 230 230 227 225 223 224 231 235 234 235 237 233
231 231 231 231 229 227 224 220 218 218 217 217 216 216 219 221 223 225 226 226 227 227 229 230 229 228 226 224 223 223 224 223 221 221 224 228 232 231 229 234 234 223
228 228 227 227 225 222 220 218 218 219 219 219 218 219 222 224 226 228 228 227 226 225 225 225 222 218 216 216 217 218 218 218 219 222 225 226 227 229 231 229 222 213
227 225 224 224 221 219 219 219 219 220 219 219 220 221 224 227 228 227 225 223 220 216 215 214 211 209 210 210 209 210 211 210 210 214 217 218 219 221 220 217 214 214
227 224 222 221 218 218 220 220 220 220 220 220 220 221 223 224 224 221 220 219 215 212 212 212 211 210 210 210 210 210 210 208 207 210 212 213 214 215 214 213 211 212
229 225 223 221 219 220 222 221 221 221 221 221 221 221 222 222 219 217 216 217 216 214 214 213 213 212 212 213 214 212 211 210 207 206 207 208 209 208 209 210 208 207
232 229 226 224 223 224 223 222 222 223 223 224 223 223 223 220 217 215 215 216 216 216 215 213 215 215 213 214 215 213 213 212 206 201 202 205 206 204 202 202 202 203
237 233 231 229 228 228 226 224 226 225 224 224 223 222 222 219 216 216 216 216 215 214 214 214 216 216 214 214 215 213 211 209 205 204 206 204 202 199 197 197 199 203